Wind_Speed
38 37 33 29 33 32 27 28 29 24 26 26 43 51 41 39 46 39 34 34 34 31 34 36 35 35 35 36 35 37 38 38 39 41 42 42 41 39 35 35 35 34 35 37
39 37 34 36 35 34 32 30 26 25 27 30 29 31 25 32 33 29 33 34 31 32 34 34 35 34 33 35 36 38 40 40 42 44 43 43 43 41 38 38 38 36 38 37
35 36 37 38 37 36 34 35 33 33 32 33 36 31 28 27 33 32 31 33 35 33 34 36 35 35 36 36 37 41 43 43 44 45 45 44 44 43 41 39 40 39 39 39
34 32 32 35 37 38 38 36 36 37 39 38 35 36 29 32 32 30 29 30 31 34 34 36 36 37 37 37 39 42 44 46 45 45 45 44 44 44 42 41 40 39 39 40
40 37 35 33 34 38 40 40 40 40 39 41 40 40 24 28 28 31 33 33 32 33 35 36 37 37 38 41 40 42 43 42 42 43 45 44 44 45 42 41 39 37 40 38
42 40 39 38 37 37 38 40 42 43 43 47 43 40 38 30 28 31 33 35 35 33 34 36 37 38 38 39 40 40 41 40 41 44 44 44 45 45 41 40 38 37 38 38
39 41 42 42 41 41 40 40 42 44 47 46 45 43 41 42 33 33 33 35 36 37 37 39 37 38 39 40 40 41 40 40 43 44 43 44 46 43 41 39 38 38 39 41
43 41 39 40 41 41 42 44 44 46 46 44 45 46 41 42 38 35 35 34 35 35 34 35 36 38 39 40 41 42 41 41 43 43 42 44 43 41 40 39 40 40 42 43
46 47 43 42 41 40 41 43 41 43 45 46 46 42 40 40 39 37 36 37 35 35 34 34 34 36 39 40 41 40 40 41 41 40 41 43 42 40 40 40 42 42 43 44
52 52 48 45 43 42 42 40 40 42 45 46 48 47 43 41 40 41 39 37 35 35 34 34 35 37 38 40 40 40 41 41 40 41 42 42 39 40 41 42 44 42 43 44
58 57 56 54 52 47 45 46 43 43 46 47 46 41 41 45 45 44 41 38 34 33 33 32 34 34 35 37 38 38 38 38 38 40 41 40 40 41 42 43 43 43 44 45
61 63 63 60 58 54 53 52 50 50 46 43 43 41 40 41 40 38 38 32 29 30 32 31 28 29 33 34 35 34 34 35 38 38 39 38 38 39 41 43 44 44 44 45
55 59 63 66 65 64 61 56 52 51 48 49 50 46 47 44 41 39 38 34 32 29 28 29 30 32 34 34 33 33 34 35 36 37 40 41 40 41 44 45 45 44 44 45
63 60 57 58 59 61 63 61 57 55 57 57 55 51 49 46 45 44 41 41 38 33 32 33 33 35 38 37 37 37 36 37 37 40 43 43 43 45 45 44 44 44 45 45
72 72 67 61 59 61 61 62 62 64 61 64 58 57 53 53 52 51 49 46 44 40 37 35 37 39 42 43 45 43 37 35 40 44 45 45 45 45 46 46 46 45 44 46
72 71 71 71 68 66 65 62 63 65 66 70 67 67 61 57 56 55 53 51 50 46 43 43 45 45 46 46 47 47 46 43 42 44 45 46 47 46 46 47 46 45 46 46
70 73 74 72 73 71 71 66 66 63 63 65 68 62 59 61 63 64 61 60 60 55 52 51 49 49 49 51 51 53 52 52 47 46 48 47 46 46 47 46 46 46 46 45
73 70 70 73 71 72 75 69 67 63 62 65 63 67 65 66 64 66 65 66 64 60 60 59 57 58 58 59 60 59 59 55 49 48 48 48 47 48 48 47 48 47 46 46
72 70 71 72 79 80 81 73 72 71 69 68 65 59 61 62 66 66 65 64 66 65 64 65 65 63 62 62 60 58 57 54 52 51 49 49 51 51 50 50 50 47 46 46
69 67 70 71 72 77 77 70 73 74 78 80 82 76 66 62 65 67 64 63 62 63 63 63 61 63 63 62 61 61 58 56 54 52 53 57 57 54 52 52 49 47 46 48
69 69 70 70 71 73 71 77 76 77 76 76 78 77 80 80 78 74 72 69 66 66 65 67 66 59 53 55 58 59 55 54 50 50 52 53 52 52 54 52 50 49 49 50
69 64 56 58 67 69 72 70 72 81 80 80 80 80 79 78 79 81 79 74 73 75 73 70 67 65 63 58 56 54 57 59 58 57 57 54 53 55 56 55 54 51 50 49
69 70 69 57 46 51 53 62 72 80 80 80 80 80 80 80 81 82 79 75 70 69 72 72 71 67 63 58 54 52 54 56 59 59 59 57 57 57 56 56 56 54 52 49
66 67 68 68 70 63 50 52 60 67 69 71 74 79 80 77 76 79 81 80 78 75 75 76 72 69 61 59 59 59 57 59 57 59 60 60 60 58 59 60 58 57 54 50
57 61 63 56 60 71 76 73 63 67 71 73 75 76 76 75 78 80 79 82 83 82 84 82 77 72 70 68 68 71 73 68 66 63 65 66 68 67 65 62 60 59 54 52
48 52 57 66 69 66 69 74 76 67 65 73 77 79 85 76 73 75 77 76 78 78 81 78 75 72 64 62 63 67 68 68 65 64 63 64 63 63 65 64 59 56 55 57
Wind_Direction
253 255 259 257 251 254 262 271 283 274 248 254 248 245 230 237 238 238 250 254 249 248 244 241 244 241 241 243 248 251 253 256 262 267 272 276 280 285 279 272 275 281 288 298
254 256 252 251 254 255 255 256 258 252 258 270 254 250 243 243 249 248 247 254 255 249 249 246 246 246 245 244 246 250 253 257 261 267 272 277 278 283 282 273 276 281 286 297
255 254 251 252 253 254 253 253 253 249 245 254 253 258 237 239 250 254 251 250 254 254 251 251 248 250 248 248 249 250 254 258 262 268 273 276 277 280 282 273 275 280 288 294
257 258 256 254 254 255 255 255 253 251 249 250 261 271 242 235 242 252 256 252 252 253 251 252 252 250 252 251 249 253 256 260 265 269 271 272 274 278 280 272 275 281 288 292
256 253 253 253 252 251 254 254 256 257 257 254 252 263 255 241 238 249 252 255 256 261 260 255 253 252 251 251 252 254 258 262 266 267 267 270 273 277 275 271 276 283 288 293
252 254 253 252 251 251 253 254 255 256 257 256 256 258 261 255 249 243 247 254 256 256 256 259 258 254 254 255 256 258 260 262 264 265 266 270 273 275 272 272 276 283 289 294
252 250 250 250 250 250 251 252 255 256 256 259 260 256 263 268 260 256 254 254 256 258 259 260 259 255 253 254 254 256 258 261 262 264 267 269 272 273 271 273 277 282 290 296
254 254 252 250 252 252 250 249 250 254 257 260 261 261 262 263 263 260 260 260 261 264 264 260 256 255 254 254 255 255 257 259 260 262 266 269 270 270 271 273 278 283 289 295
254 253 252 252 250 250 251 252 255 256 258 258 260 265 266 266 270 269 264 264 267 268 267 264 261 258 256 257 256 256 256 256 259 263 266 267 268 270 271 274 277 283 289 295
254 255 252 250 250 250 252 251 251 252 255 258 261 261 264 268 267 269 270 270 268 267 266 263 259 258 258 256 256 257 257 259 262 264 264 265 268 269 272 274 278 284 290 294
250 252 254 253 251 253 252 252 251 251 251 255 259 259 262 264 268 271 271 270 270 269 265 260 256 254 255 257 258 259 259 261 263 263 265 268 270 272 275 278 281 286 290 293
250 251 251 251 251 251 250 251 249 248 252 257 261 257 261 261 263 268 271 272 270 264 259 254 249 251 253 255 256 257 255 259 262 265 267 271 274 275 276 279 284 287 289 293
247 248 250 251 251 251 251 253 255 256 254 253 255 256 257 260 264 267 269 272 267 262 255 252 255 254 254 254 255 256 255 255 261 266 269 272 272 275 277 282 285 286 288 291
245 248 248 248 250 252 252 252 252 252 251 252 251 256 258 262 262 263 263 261 261 261 259 255 251 253 257 258 256 254 253 254 254 261 266 269 273 275 280 283 283 285 288 291
249 246 246 244 246 249 252 251 252 252 253 254 254 254 253 258 259 257 258 262 264 260 256 252 250 252 253 255 259 260 258 252 254 258 263 268 272 276 279 279 282 285 289 291
251 254 251 248 244 245 250 251 251 253 253 252 251 253 254 253 257 260 259 258 260 257 252 250 249 251 254 258 261 263 264 262 259 262 264 270 275 275 275 278 282 287 289 290
247 252 252 251 251 252 249 245 251 254 255 256 252 253 255 254 251 250 253 253 254 257 258 256 253 253 255 258 261 261 262 263 264 268 272 273 272 276 276 278 283 286 287 288
247 248 247 249 248 243 252 248 249 254 255 254 250 250 251 253 251 253 252 252 253 252 251 251 251 252 253 253 255 258 261 263 266 269 272 274 276 275 277 279 281 283 286 287
246 248 251 250 245 252 255 253 255 255 249 248 252 248 249 251 252 254 257 258 257 257 258 258 255 252 254 258 259 260 262 264 263 267 270 272 274 274 276 276 278 282 284 283
248 249 249 249 251 254 255 249 253 253 254 252 251 249 247 248 249 250 254 255 256 257 258 260 262 265 263 261 260 259 260 263 264 268 271 271 273 273 273 273 276 280 282 280
243 246 250 254 254 253 252 253 250 252 256 255 255 257 254 251 250 251 254 256 257 259 259 257 256 256 258 259 260 263 263 265 264 263 265 268 268 268 269 271 274 278 279 278
245 247 254 258 253 252 251 251 250 253 254 255 254 256 257 255 256 257 257 257 256 257 260 260 261 260 258 257 257 260 260 259 260 260 262 263 264 266 269 272 275 275 276 277
243 244 244 241 245 253 255 254 252 253 255 255 254 254 255 257 257 256 256 257 257 256 256 258 260 260 263 262 261 256 255 254 255 257 258 258 260 263 266 270 272 275 275 274
241 244 245 245 241 238 244 247 248 249 251 255 255 256 253 252 254 255 256 256 256 253 253 254 255 255 250 250 250 242 244 248 251 255 257 257 258 262 265 268 271 272 271 270
244 242 239 237 242 242 240 241 245 244 240 242 246 247 248 251 249 251 255 256 255 254 255 256 257 258 256 252 249 248 250 251 251 256 257 258 262 266 267 268 270 270 266 265
237 238 236 234 232 236 237 237 235 235 236 244 247 250 252 247 249 254 252 244 247 252 253 252 252 254 252 254 255 257 257 257 256 257 256 256 258 262 264 265 266 266 266 263
Height
5722 5723 5726 5726 5724 5723 5726 5726 5727 5727 5726 5725 5730 5732 5736 5734 5735 5742 5745 5745 5747 5749 5748 5750 5751 5752 5754 5756 5759 5761 5761 5760 5761 5760 5760 5760 5758 5757 5755 5753 5752 5749 5746 5743
5713 5714 5716 5715 5715 5716 5717 5718 5720 5722 5720 5719 5722 5722 5728 5730 5730 5735 5735 5737 5740 5740 5740 5743 5743 5745 5747 5749 5750 5751 5752 5751 5751 5752 5752 5751 5750 5748 5747 5745 5743 5741 5739 5734
5703 5705 5705 5706 5707 5708 5709 5710 5712 5713 5713 5712 5713 5712 5719 5722 5724 5725 5728 5730 5731 5733 5733 5734 5735 5737 5738 5740 5741 5741 5742 5742 5742 5743 5743 5742 5741 5739 5738 5736 5734 5732 5730 5726
5693 5694 5696 5697 5698 5699 5700 5702 5702 5703 5703 5704 5706 5699 5710 5714 5716 5717 5718 5719 5720 5722 5724 5725 5726 5728 5730 5732 5730 5731 5732 5732 5733 5734 5733 5731 5731 5730 5729 5727 5725 5723 5720 5717
5685 5685 5686 5687 5689 5689 5691 5692 5692 5693 5694 5695 5697 5695 5700 5705 5709 5710 5709 5711 5712 5713 5715 5716 5717 5718 5719 5720 5720 5721 5722 5723 5724 5724 5723 5722 5721 5720 5719 5717 5716 5714 5712 5707
5671 5673 5675 5677 5678 5679 5680 5682 5683 5683 5684 5683 5688 5690 5685 5695 5699 5700 5701 5702 5703 5704 5705 5706 5707 5708 5709 5709 5709 5712 5712 5712 5713 5714 5713 5712 5711 5710 5709 5708 5707 5705 5702 5697
5661 5661 5662 5665 5666 5668 5670 5671 5672 5672 5672 5674 5677 5680 5677 5680 5688 5690 5691 5692 5693 5694 5696 5697 5697 5697 5698 5699 5700 5702 5702 5702 5703 5703 5703 5701 5701 5701 5700 5700 5698 5695 5691 5687
5648 5652 5652 5654 5655 5658 5658 5659 5660 5659 5661 5666 5665 5665 5672 5672 5676 5679 5680 5682 5683 5684 5686 5687 5687 5687 5687 5688 5690 5690 5692 5692 5693 5693 5692 5692 5692 5691 5690 5689 5688 5685 5681 5677
5635 5637 5641 5642 5643 5645 5647 5647 5651 5650 5650 5651 5654 5658 5661 5663 5664 5666 5669 5670 5671 5673 5675 5676 5676 5677 5677 5678 5678 5680 5681 5682 5682 5681 5682 5682 5682 5681 5680 5679 5678 5675 5671 5667
5620 5622 5626 5629 5631 5633 5634 5638 5638 5637 5638 5639 5643 5647 5650 5653 5655 5654 5655 5657 5660 5662 5664 5666 5666 5666 5667 5667 5668 5670 5670 5671 5670 5671 5671 5671 5671 5671 5670 5670 5667 5664 5661 5657
5606 5606 5611 5614 5618 5622 5622 5623 5626 5627 5627 5628 5631 5638 5641 5641 5643 5644 5645 5647 5648 5649 5651 5654 5655 5656 5656 5656 5657 5658 5658 5659 5660 5661 5661 5662 5662 5661 5660 5658 5656 5653 5650 5646
5588 5588 5591 5598 5600 5604 5607 5610 5611 5611 5618 5621 5623 5627 5628 5628 5631 5633 5634 5637 5638 5638 5639 5641 5642 5644 5645 5646 5646 5647 5648 5649 5650 5650 5651 5651 5651 5651 5649 5647 5645 5642 5639 5635
5571 5568 5574 5578 5584 5586 5589 5597 5600 5603 5605 5608 5609 5615 5614 5620 5621 5623 5623 5627 5626 5629 5631 5632 5633 5634 5634 5635 5637 5638 5639 5639 5640 5641 5640 5640 5640 5640 5637 5636 5634 5631 5628 5625
5549 5548 5553 5562 5568 5569 5572 5578 5582 5585 5586 5592 5595 5603 5605 5607 5611 5612 5613 5613 5615 5619 5620 5621 5623 5624 5624 5625 5625 5626 5629 5630 5630 5630 5629 5629 5629 5627 5626 5624 5622 5620 5618 5615
5523 5526 5537 5545 5548 5550 5552 5558 5561 5564 5574 5570 5587 5584 5592 5592 5594 5596 5598 5601 5603 5606 5608 5610 5611 5611 5611 5612 5612 5614 5618 5619 5619 5619 5618 5618 5617 5616 5614 5612 5611 5609 5607 5604
5507 5509 5515 5520 5529 5530 5530 5537 5544 5547 5551 5550 5563 5563 5574 5580 5581 5582 5583 5585 5584 5587 5592 5595 5598 5598 5599 5600 5601 5601 5603 5606 5607 5608 5607 5606 5605 5604 5602 5601 5599 5598 5596 5593
5490 5492 5497 5498 5507 5507 5501 5527 5529 5531 5535 5539 5536 5553 5553 5557 5562 5564 5565 5564 5567 5573 5577 5579 5583 5586 5587 5587 5587 5587 5588 5588 5592 5593 5593 5593 5592 5592 5590 5590 5589 5587 5585 5582
5470 5477 5480 5482 5486 5473 5494 5512 5515 5513 5518 5514 5516 5524 5531 5535 5543 5546 5540 5543 5549 5552 5556 5558 5561 5564 5566 5568 5569 5571 5572 5574 5577 5579 5580 5580 5580 5579 5578 5578 5576 5575 5574 5572
5455 5459 5460 5462 5466 5469 5471 5494 5497 5494 5499 5492 5495 5505 5512 5518 5524 5526 5524 5530 5534 5537 5540 5543 5545 5547 5550 5554 5555 5557 5559 5560 5563 5565 5566 5567 5566 5566 5566 5565 5564 5564 5562 5561
5435 5438 5439 5442 5441 5442 5455 5473 5469 5469 5460 5470 5474 5482 5492 5497 5499 5504 5505 5508 5514 5517 5521 5527 5530 5535 5538 5538 5538 5540 5544 5545 5548 5550 5551 5550 5551 5552 5552 5551 5552 5551 5550 5549
5416 5417 5417 5422 5421 5425 5430 5442 5452 5446 5444 5450 5456 5461 5468 5476 5479 5483 5487 5491 5495 5498 5503 5508 5511 5515 5519 5521 5522 5526 5528 5530 5531 5532 5533 5534 5536 5537 5536 5537 5537 5537 5537 5536
5396 5401 5404 5404 5406 5404 5407 5423 5431 5414 5419 5427 5434 5438 5444 5452 5456 5460 5465 5470 5476 5479 5482 5487 5492 5495 5499 5502 5506 5508 5511 5510 5512 5515 5519 5520 5520 5521 5520 5521 5522 5523 5523 5523
5376 5376 5382 5387 5390 5384 5388 5395 5402 5397 5399 5402 5410 5415 5420 5425 5432 5439 5443 5448 5453 5458 5462 5466 5473 5476 5480 5484 5488 5492 5493 5494 5496 5499 5502 5503 5504 5505 5505 5506 5507 5510 5510 5510
5354 5357 5360 5366 5367 5369 5373 5374 5377 5376 5377 5379 5385 5391 5398 5405 5408 5414 5420 5424 5429 5436 5441 5445 5451 5456 5460 5466 5470 5472 5474 5477 5481 5484 5486 5487 5488 5488 5489 5490 5492 5494 5495 5495
5335 5338 5340 5342 5344 5343 5351 5356 5358 5360 5361 5362 5364 5368 5373 5379 5385 5391 5394 5398 5403 5408 5414 5420 5426 5432 5437 5444 5448 5453 5454 5459 5462 5466 5470 5472 5473 5473 5474 5476 5478 5479 5480 5481
5321 5321 5321 5323 5325 5321 5326 5332 5338 5339 5341 5343 5343 5346 5351 5355 5360 5365 5372 5376 5379 5383 5389 5395 5401 5409 5414 5419 5424 5428 5432 5435 5440 5445 5449 5451 5454 5456 5458 5460 5462 5464 5465 5466